Temperature
19 19 19 19 18 18 18 18 17 17 17 17 17 16 16 16 16 16 16 16 15 15 15 15 15 15 15 15 15 15 16 15 15 15 15 15 15 15 15 15 15 15 15
19 19 19 19 18 18 18 18 17 17 17 17 17 16 16 16 16 15 15 15 15 15 15 15 15 15 15 15 15 15 15 15 15 15 15 15 15 15 15 15 15 15 15
19 19 19 19 19 18 18 18 18 17 17 17 17 16 16 16 16 15 15 15 15 15 15 15 15 15 15 15 15 15 15 15 15 15 15 15 14 14 14 14 15 15 15
19 19 19 19 19 18 18 18 18 17 17 17 17 16 16 16 16 16 15 15 15 15 15 15 15 15 15 15 15 15 15 15 15 15 15 15 14 14 14 14 14 14 14
19 19 19 19 19 18 18 18 18 17 17 17 17 16 16 16 16 15 15 15 15 15 15 15 15 15 15 15 15 15 15 15 15 15 14 14 14 14 14 14 14 14 14
19 19 19 19 19 18 18 18 18 17 17 17 17 16 16 16 16 16 15 15 15 15 15 15 14 14 14 14 14 14 14 14 14 14 14 14 14 14 14 14 13 13 13
20 19 19 19 19 18 18 18 18 17 17 17 17 16 16 16 16 16 15 15 15 15 14 14 14 14 14 14 14 14 14 14 14 14 14 14 14 14 14 13 13 13 13
20 20 19 19 19 19 18 18 18 17 17 17 17 16 16 16 16 16 15 15 15 15 14 14 14 14 14 14 14 14 14 14 14 14 14 14 14 13 14 13 13 13 13
20 20 19 19 19 19 18 18 18 18 17 17 17 17 16 16 16 16 15 15 15 15 14 14 14 14 14 14 14 14 14 14 14 14 13 13 13 13 13 13 13 13 13
20 20 20 19 19 19 19 18 18 18 17 17 17 16 16 16 16 16 16 15 15 15 14 14 14 14 14 14 14 14 14 14 14 13 13 13 13 13 13 13 13 13 13
20 20 20 20 19 19 19 18 18 18 17 17 17 17 16 16 16 16 16 15 15 15 15 14 14 14 14 14 14 14 13 13 13 13 13 13 13 13 13 13 13 13 12
21 20 20 19 19 19 18 18 18 18 17 17 17 17 16 16 16 16 15 15 15 15 15 14 14 14 14 14 14 13 13 13 13 13 13 13 13 13 13 13 12 12 12
20 20 20 19 19 19 19 18 18 18 17 17 17 17 16 16 16 16 15 15 15 15 14 14 14 14 14 14 14 14 13 13 13 13 13 13 13 13 12 12 12 12 12
20 20 20 19 19 19 19 18 18 18 17 17 17 17 16 16 16 16 15 15 15 15 14 14 14 14 14 14 14 14 13 13 13 13 13 13 13 12 12 12 12 12 12
20 20 20 19 19 19 19 18 18 18 17 17 17 17 16 16 16 15 15 15 15 15 14 14 14 14 14 14 14 13 13 13 13 13 13 13 12 12 12 12 12 12 11
20 20 20 19 19 19 19 18 18 18 18 17 17 17 16 16 16 15 15 15 15 14 14 14 14 14 14 14 13 13 13 13 13 13 13 12 12 12 12 12 11 11 11
20 20 20 20 20 19 19 19 18 18 18 17 17 17 16 16 16 16 15 15 15 15 14 14 14 14 14 13 13 13 13 13 13 13 12 12 12 12 11 11 11 11 11
21 21 20 20 20 19 19 19 18 18 18 17 17 17 16 16 16 16 15 15 15 15 14 14 14 14 14 13 13 13 13 13 13 12 12 12 12 11 11 11 11 11 10
21 21 20 20 20 19 19 18 18 18 17 17 17 17 16 16 16 16 16 15 15 15 14 14 14 14 13 13 13 13 13 13 12 12 12 12 11 11 11 11 11 10 10
21 20 20 20 19 19 19 18 18 18 17 17 17 17 16 16 16 16 16 15 15 15 14 14 14 14 13 13 13 13 12 12 12 12 12 11 11 11 10 10 10 10 10
21 20 20 20 19 19 19 18 18 18 18 17 17 17 16 16 16 16 15 15 15 14 14 14 14 13 13 13 13 12 12 12 12 12 11 11 11 11 10 10 10 10 9
20 20 20 19 19 19 18 18 18 18 17 17 17 16 16 16 16 15 15 15 14 14 14 13 13 13 13 13 12 12 12 12 11 11 11 11 10 10 10 10 9 9 9
20 19 19 19 19 18 18 18 18 17 17 17 16 16 16 16 15 15 15 14 14 14 13 13 13 13 13 12 12 12 12 11 11 11 11 10 10 10 9 9 9 9 8
19 19 19 19 18 18 18 18 18 17 17 16 16 16 15 15 15 15 14 14 14 14 13 13 13 13 12 12 12 12 11 11 11 11 10 10 10 9 9 9 9 8 8
19 19 18 18 18 18 17 17 17 17 16 16 16 15 15 15 14 14 14 14 14 13 13 13 13 12 12 12 12 11 11 11 11 10 10 10 9 9 9 9 8 8 8
18 18 18 18 18 17 17 17 16 16 16 16 15 15 15 14 14 14 13 13 13 13 12 12 12 12 12 11 11 11 11 10 10 10 9 9 9 9 9 8 8 8 7
Wind_Speed
6 7 8 8 7 6 7 6 6 5 5 4 4 3 3 2 3 5 8 10 10 10 9 6 6 6 5 5 5 4 5 5 3 4 4 5 5 6 6 5 5 6 8
6 6 7 7 7 7 7 6 6 5 4 3 3 3 3 2 2 3 7 10 10 9 8 6 4 4 5 7 7 5 3 4 5 3 3 4 5 5 6 5 6 6 7
10 9 8 7 7 7 7 7 5 5 5 5 4 4 4 3 3 3 3 5 9 10 9 7 5 5 5 5 5 5 5 4 5 4 3 3 1 2 4 5 6 6 5
9 8 9 8 7 7 7 7 6 5 5 6 6 6 4 3 1 1 1 3 7 7 8 8 7 5 4 5 5 5 4 4 4 4 4 3 3 2 2 4 5 6 6
11 10 9 9 8 7 7 7 6 5 5 5 6 6 4 3 1 1 2 3 4 5 6 7 7 5 4 4 5 5 6 4 4 3 2 4 4 4 3 1 4 4 4
11 9 8 8 6 6 6 7 7 5 5 6 6 7 7 5 4 3 2 1 2 2 4 5 5 5 4 4 4 4 6 5 5 5 4 3 3 2 3 2 1 2 3
11 10 10 9 8 8 7 7 7 6 5 6 6 6 7 7 6 4 3 2 1 1 1 2 3 3 4 5 4 4 5 4 5 5 4 4 3 2 2 2 1 2 2
11 12 12 10 10 9 9 8 8 6 6 6 6 5 6 5 4 4 4 4 3 2 2 3 3 4 5 5 5 3 3 4 5 5 4 4 3 3 2 2 2 2 3
13 12 11 10 10 10 10 9 9 7 6 6 6 5 5 5 5 4 4 3 2 2 3 3 3 3 4 5 4 4 3 4 4 4 4 3 3 3 2 2 3 3 2
12 12 11 11 10 10 9 8 9 8 6 6 6 5 5 5 5 5 4 4 3 3 3 3 3 3 3 4 4 3 3 4 3 3 5 4 3 3 3 3 2 2 3
13 12 11 11 10 9 9 8 8 7 6 6 5 6 5 5 5 5 5 4 3 3 4 3 3 3 3 3 4 3 3 4 4 3 4 3 3 3 3 3 3 2 2
11 11 11 10 9 9 9 9 8 7 7 6 6 6 6 5 5 5 5 5 4 4 4 4 4 3 3 3 3 3 3 4 3 3 3 3 3 4 3 3 3 2 1
9 8 9 10 10 9 9 9 8 8 7 7 7 6 5 5 5 5 5 5 5 4 4 4 4 4 3 3 3 3 3 3 3 3 3 2 3 3 2 2 2 1 2
10 9 9 10 10 9 9 9 8 8 8 7 7 7 7 6 6 5 5 5 5 5 5 4 4 4 3 3 3 3 3 3 2 2 2 1 2 1 1 1 1 1 2
9 10 11 10 9 8 8 8 8 8 8 8 8 8 7 6 6 6 5 5 5 5 5 4 3 3 3 3 4 4 3 3 2 1 1 0 1 0 1 0 0 1 1
11 11 11 10 10 10 9 8 8 8 8 9 8 7 7 7 7 6 6 5 5 4 4 4 4 4 3 4 5 5 4 3 2 1 1 1 1 2 3 2 1 0 0
11 11 11 11 11 11 10 10 9 7 8 8 7 7 7 7 7 7 7 6 5 5 5 4 4 4 3 4 4 5 4 3 2 2 1 1 1 2 1 3 3 3 3
10 10 10 10 9 9 8 8 7 8 8 7 7 7 8 7 6 6 7 6 5 5 5 4 4 3 3 4 4 4 3 3 2 2 3 2 2 1 1 1 2 3 4
10 10 10 9 9 9 9 8 8 8 8 8 8 8 8 8 7 7 7 6 5 5 4 4 5 4 3 4 4 4 3 2 1 2 2 3 2 3 2 0 2 3 4
6 7 7 7 8 8 9 9 9 9 9 9 9 8 8 8 8 8 7 5 5 5 5 4 4 5 4 5 5 5 3 2 2 2 2 3 4 4 3 2 2 3 5
5 6 7 8 8 8 9 10 9 10 10 8 7 7 7 7 7 6 5 5 5 5 4 4 4 4 5 5 6 6 4 4 3 3 3 4 5 5 4 3 3 5 5
5 6 7 7 6 8 10 10 10 9 6 7 7 7 7 6 6 6 5 5 6 5 5 4 3 3 4 5 6 8 7 6 4 4 4 4 6 6 6 4 5 8 6
5 5 6 6 5 7 9 10 9 6 7 7 7 7 6 5 6 6 6 4 5 5 5 4 5 4 4 4 8 8 8 8 6 5 6 6 6 6 5 7 7 6 3
4 4 5 5 5 6 7 8 7 7 8 8 7 6 6 5 5 5 5 5 5 5 5 5 5 5 4 4 4 5 5 6 6 5 5 6 6 4 5 5 5 4 4
3 5 6 6 6 5 5 5 6 8 8 7 6 6 6 6 5 5 5 6 7 8 8 7 6 6 6 8 9 7 5 5 6 4 2 2 2 3 4 4 4 4 4
3 4 4 4 4 5 5 4 6 8 8 6 6 5 5 5 4 4 3 4 5 8 10 10 8 7 9 9 9 10 10 10 8 4 3 4 5 5 6 5 5 4 5
Wind_Direction
174 155 146 142 133 125 123 126 123 124 117 105 99 89 71 50 43 52 57 57 59 63 63 57 45 44 45 35 33 40 40 30 29 59 34 13 25 38 34 32 40 42 47
167 157 148 146 147 145 139 135 138 136 132 131 132 128 119 90 63 47 50 52 58 63 68 63 51 45 48 39 35 40 50 32 33 78 75 28 6 8 21 25 37 34 42
177 169 158 156 152 153 154 153 152 142 134 128 109 90 68 51 38 34 30 39 62 69 69 64 61 53 57 52 42 46 63 54 28 47 103 108 94 343 356 18 27 27 37
182 175 165 163 164 165 156 149 147 143 136 127 126 130 129 133 171 160 65 43 57 68 74 69 62 57 54 52 47 55 60 72 48 28 43 86 129 108 22 356 6 23 35
186 182 175 171 167 159 152 148 143 140 135 130 136 132 130 144 145 110 78 50 38 56 71 73 67 59 56 56 56 57 57 65 73 58 47 51 49 63 101 42 350 5 11
185 179 175 162 155 150 148 147 144 147 143 137 138 141 143 141 130 126 111 64 40 34 57 71 67 66 63 60 64 66 67 66 71 67 64 74 73 58 81 94 16 359 344
178 174 173 169 163 160 159 155 150 153 152 145 148 155 154 151 153 159 155 141 113 84 49 70 69 68 70 72 74 71 65 64 73 71 66 66 69 95 102 99 70 23 343
179 179 181 177 170 168 166 162 159 162 164 160 163 165 158 152 160 168 164 163 169 176 151 112 91 81 79 76 78 75 70 69 73 71 69 64 46 63 91 120 115 57 7
181 180 180 179 175 175 176 173 167 165 170 170 165 168 166 156 161 168 166 169 174 164 130 115 100 85 82 79 82 79 73 75 73 73 68 63 39 44 59 85 114 123 72
181 180 182 183 183 180 178 173 169 170 174 172 174 174 174 167 164 158 163 167 165 142 128 121 116 101 86 80 80 83 77 79 68 70 69 55 38 40 45 62 75 104 134
185 185 185 185 182 176 173 174 174 169 171 173 174 165 170 165 159 163 171 170 160 149 142 148 133 118 104 91 90 96 89 87 73 68 75 59 52 48 39 50 62 68 103
183 181 179 176 177 178 178 180 180 178 181 179 172 170 168 162 164 174 177 167 160 158 158 150 135 128 120 112 114 117 104 105 94 83 79 59 59 48 35 44 45 46 81
174 172 170 175 181 183 183 186 187 188 183 176 172 171 170 169 176 180 172 161 156 151 151 142 143 144 143 134 133 127 116 114 113 112 107 91 77 51 32 42 41 23 35
176 175 180 185 186 186 187 189 193 188 181 177 175 178 182 183 182 176 167 162 155 152 157 158 157 159 155 148 143 130 120 113 110 112 122 134 131 143 120 59 45 51 43
183 184 186 188 189 188 190 192 193 189 181 176 180 186 186 181 171 168 168 164 159 159 161 154 152 155 151 157 151 146 137 128 111 74 81 141 149 144 142 107 164 103 72
193 191 188 186 189 191 192 191 191 188 177 179 188 181 175 172 172 174 168 164 165 159 152 155 153 155 162 159 156 146 136 135 136 153 311 330 6 6 6 359 353 134 138
191 189 192 193 195 194 190 192 191 179 174 181 183 178 174 173 177 177 167 171 170 158 157 164 158 162 178 170 161 154 144 146 161 182 210 316 350 12 357 347 353 344 333
188 190 192 195 195 190 187 181 173 172 177 182 183 181 177 180 177 169 172 175 165 163 167 173 172 170 197 191 180 164 143 148 181 203 201 204 263 287 280 325 340 317 307
189 192 191 188 186 184 180 167 168 172 176 186 192 190 182 179 177 180 183 178 166 170 175 177 177 181 215 208 194 169 147 163 230 243 214 204 223 267 282 327 308 313 310
186 185 177 169 176 184 171 168 176 179 191 196 195 188 182 181 186 190 187 176 173 185 181 186 192 193 208 215 208 192 165 190 237 262 263 247 240 256 261 225 244 285 288
179 171 166 176 187 178 168 176 182 197 202 189 179 176 179 185 187 185 180 174 176 177 184 195 209 209 217 223 218 202 186 200 217 236 253 255 262 265 270 258 235 261 281
163 161 168 183 183 172 171 181 197 202 181 169 172 178 181 184 179 169 174 173 173 179 194 202 224 236 235 225 223 216 213 206 206 231 240 246 258 265 273 271 277 288 299
166 167 171 175 179 180 179 189 200 178 166 168 178 182 180 182 171 171 176 174 177 187 203 205 222 241 242 239 234 229 228 222 220 233 235 242 253 263 273 279 287 291 280
161 157 154 165 185 192 190 191 181 167 163 172 181 181 180 182 178 178 181 183 191 198 206 211 223 234 239 238 236 234 238 234 234 240 250 256 265 261 264 279 283 266 252
165 157 164 177 190 185 186 179 169 164 169 176 179 182 184 184 187 193 199 199 208 204 204 214 215 215 234 240 226 218 225 221 223 210 224 243 258 265 271 273 272 266 267
162 159 165 173 180 175 180 179 172 169 171 178 182 184 184 184 185 190 225 242 228 226 219 217 215 227 232 240 237 234 233 225 213 195 222 237 242 249 256 262 267 261 255
Height
1553 1554 1556 1557 1558 1559 1560 1561 1562 1562 1562 1562 1562 1561 1561 1561 1560 1559 1559 1558 1556 1555 1554 1553 1551 1550 1549 1549 1548 1547 1547 1547 1547 1548 1548 1548 1548 1548 1547 1547 1546 1546 1545
1552 1554 1555 1556 1558 1559 1560 1561 1562 1562 1562 1562 1562 1562 1561 1561 1561 1560 1559 1558 1557 1556 1555 1554 1552 1551 1550 1550 1549 1548 1548 1548 1548 1548 1549 1549 1551 1549 1549 1548 1548 1547 1547
1550 1552 1554 1555 1557 1558 1560 1561 1561 1562 1562 1562 1562 1562 1562 1561 1561 1560 1560 1559 1558 1557 1556 1555 1554 1553 1552 1551 1550 1550 1549 1549 1549 1549 1549 1549 1550 1550 1551 1550 1549 1549 1548
1548 1550 1552 1554 1556 1557 1559 1560 1561 1562 1562 1562 1562 1562 1562 1561 1561 1560 1560 1559 1559 1558 1557 1556 1555 1554 1553 1552 1552 1551 1551 1550 1550 1550 1550 1550 1550 1550 1551 1552 1551 1550 1549
1546 1548 1550 1552 1554 1556 1558 1559 1560 1561 1561 1562 1562 1562 1561 1561 1561 1560 1560 1560 1559 1559 1558 1557 1556 1555 1554 1554 1553 1552 1552 1551 1551 1551 1551 1551 1551 1551 1551 1551 1552 1551 1551
1543 1546 1549 1551 1553 1555 1557 1558 1559 1560 1560 1561 1561 1561 1561 1561 1561 1560 1560 1560 1559 1559 1558 1558 1557 1556 1556 1555 1555 1554 1553 1553 1552 1552 1552 1552 1551 1551 1551 1552 1552 1552 1552
1540 1543 1546 1549 1551 1553 1555 1556 1557 1558 1559 1559 1560 1560 1560 1560 1560 1560 1560 1559 1559 1559 1558 1558 1558 1557 1557 1556 1556 1555 1555 1554 1554 1553 1553 1553 1553 1553 1553 1553 1553 1552 1553
1537 1540 1543 1546 1548 1551 1553 1554 1555 1556 1557 1558 1558 1559 1559 1559 1559 1559 1559 1559 1559 1559 1559 1559 1558 1558 1558 1557 1557 1557 1556 1556 1555 1555 1555 1554 1554 1554 1554 1554 1554 1553 1553
1534 1537 1541 1544 1546 1548 1550 1552 1553 1555 1556 1556 1557 1558 1558 1558 1558 1558 1558 1559 1559 1559 1559 1559 1559 1559 1558 1558 1558 1557 1557 1557 1557 1556 1556 1556 1555 1555 1555 1555 1555 1555 1553
1532 1535 1538 1541 1544 1546 1548 1550 1552 1553 1554 1555 1555 1556 1557 1557 1557 1558 1558 1558 1558 1558 1559 1559 1559 1559 1559 1559 1559 1558 1558 1558 1558 1558 1557 1557 1557 1556 1556 1556 1555 1555 1554
1528 1532 1535 1539 1541 1544 1546 1548 1549 1551 1552 1553 1554 1554 1555 1556 1556 1556 1556 1557 1557 1558 1558 1559 1559 1559 1559 1559 1559 1559 1559 1559 1558 1558 1558 1558 1557 1557 1557 1556 1555 1555 1554
1526 1529 1533 1536 1539 1541 1543 1545 1547 1549 1550 1552 1552 1553 1554 1554 1554 1555 1555 1556 1556 1557 1557 1558 1558 1559 1559 1559 1559 1559 1559 1559 1559 1558 1558 1558 1557 1557 1557 1556 1555 1555 1554
1525 1528 1531 1534 1536 1539 1541 1543 1545 1547 1548 1550 1551 1551 1552 1552 1553 1553 1554 1555 1556 1556 1557 1557 1558 1558 1558 1559 1559 1559 1559 1559 1559 1558 1558 1558 1557 1557 1556 1555 1555 1554 1553
1523 1525 1528 1531 1534 1536 1539 1541 1543 1545 1546 1547 1548 1549 1550 1551 1552 1552 1553 1554 1555 1555 1556 1557 1557 1557 1558 1558 1558 1559 1559 1558 1558 1558 1558 1557 1556 1556 1555 1554 1554 1553 1552
1521 1523 1525 1528 1531 1534 1536 1538 1540 1542 1544 1545 1546 1547 1549 1550 1550 1551 1552 1553 1553 1554 1555 1556 1556 1556 1557 1557 1558 1558 1558 1558 1558 1557 1557 1556 1556 1555 1554 1553 1552 1551 1550
1517 1520 1523 1525 1528 1530 1533 1535 1537 1539 1541 1542 1544 1545 1547 1547 1548 1549 1550 1551 1552 1553 1553 1554 1555 1555 1556 1556 1557 1557 1557 1557 1556 1556 1556 1555 1554 1553 1552 1551 1550 1550 1548
1515 1517 1520 1522 1525 1527 1530 1532 1535 1537 1539 1540 1542 1543 1544 1545 1546 1548 1549 1549 1550 1551 1552 1552 1553 1554 1554 1555 1555 1555 1555 1555 1554 1554 1554 1553 1552 1551 1550 1549 1548 1547 1546
1512 1515 1517 1520 1523 1525 1527 1530 1532 1534 1536 1537 1539 1541 1542 1543 1544 1546 1547 1548 1549 1549 1550 1551 1551 1552 1552 1553 1553 1553 1553 1552 1552 1552 1551 1551 1550 1549 1548 1547 1545 1544 1543
1511 1513 1515 1518 1520 1522 1525 1527 1529 1531 1533 1534 1536 1538 1539 1541 1542 1543 1544 1545 1546 1547 1548 1548 1549 1550 1550 1550 1550 1550 1550 1550 1549 1549 1549 1548 1547 1546 1545 1544 1542 1541 1540
1509 1511 1514 1516 1518 1520 1522 1524 1526 1528 1529 1531 1533 1535 1537 1538 1539 1540 1542 1543 1544 1545 1546 1546 1547 1547 1547 1547 1548 1547 1547 1546 1546 1546 1545 1545 1544 1543 1542 1540 1539 1537 1536
1508 1510 1512 1513 1515 1518 1520 1521 1523 1524 1526 1529 1531 1532 1534 1535 1536 1538 1539 1540 1541 1542 1542 1543 1544 1544 1544 1544 1544 1544 1543 1543 1542 1542 1541 1541 1540 1539 1538 1537 1535 1533 1532
1506 1508 1509 1511 1513 1515 1517 1518 1519 1521 1524 1526 1528 1529 1531 1532 1533 1534 1535 1537 1538 1538 1539 1539 1540 1540 1540 1540 1540 1540 1540 1539 1538 1538 1537 1537 1536 1535 1534 1532 1531 1529 1528
1504 1506 1507 1509 1511 1513 1514 1515 1517 1519 1521 1523 1524 1526 1527 1529 1530 1531 1532 1533 1534 1535 1535 1535 1535 1536 1536 1536 1536 1536 1536 1535 1534 1533 1533 1532 1531 1530 1529 1528 1526 1525 1523
1503 1504 1506 1507 1509 1510 1512 1513 1515 1516 1518 1519 1521 1522 1524 1525 1526 1527 1529 1529 1530 1530 1531 1531 1531 1531 1531 1531 1531 1531 1531 1530 1530 1529 1528 1527 1527 1525 1524 1523 1521 1519 1517
1501 1502 1504 1505 1506 1508 1509 1511 1512 1514 1515 1516 1517 1519 1520 1521 1522 1523 1524 1525 1526 1527 1527 1527 1527 1526 1526 1526 1527 1526 1525 1525 1524 1524 1523 1522 1521 1519 1518 1517 1515 1513 1512
1499 1500 1501 1503 1504 1505 1506 1508 1509 1510 1511 1512 1514 1515 1516 1517 1518 1519 1520 1520 1521 1522 1522 1522 1522 1521 1522 1522 1521 1521 1520 1520 1519 1518 1516 1515 1514 1513 1512 1510 1508 1507 1505